Location: Austin
(30.3000°N, 97.7500°W)
Time: 10:48:47
(UTC-05:00)

Resurs 1-3 - Pass Details

Date: 26 May 2023
Orbit: 625 x 629 km, 97.8° (Epoch: 30 May)

Event Time Altitude Azimuth Distance (km) Brightness Sun altitude
Exits shadow 21:08:00 - 157° (SSE) 2,318 6.0 -9.0°
Reaches altitude 10° 21:08:48 10° 155° (SSE) 1,994 5.7 -9.2°
Maximum altitude 21:13:04 59° 76° (ENE) 724 3.7 -10.0°
Drops below altitude 10° 21:17:21 10° 357° (N) 2,004 6.7 -10.7°
Sets 21:19:34 0° 354° (N) 2,914 7.6 -11.2°
